Weather in Širvintos

Lithuania     55°02′31″N   24°57′11″E
temp.,
°C
wind,
m/s
gust,
m/s
humid.,
%
clouds,
%
prec.,
mm/h
press.,
hPa
HPBL,
m
6 may, thu
thu600:00+8s3792100 0.5 999189
03:00+7ssw3792100 1.4 998184
06:00+6wsw41190100 0.1 997432
09:00+6wsw71184100 0.1 9991061
12:00+6wsw71286100 0.4 10001246
15:00+8wsw9137999 1.5 10021554
18:00+7wsw8148297 1.2 10031399
21:00+5wsw5128263 1.9 1004464
7 may, fri
fri700:00+3ssw41190100 0.3 1005237
03:00+4ssw61286100 0.3 1005423
06:00+4sw499326 0.0 1005521
09:00+6sw4781100 0.0 1006669
12:00+9ssw3558100 0.0 10051408
15:00+9sw2255100 0.0 10051252
18:00+6nne2384100 1.2 1003688
21:00+5n3594100 4.8 1003709
8 may, sat
sat800:00+5nw4696100 2.2 1004959
03:00+4w3796100 3.3 1004554
06:00+3wnw61095100 0.2 1007637
09:00+4wnw6108025 0.2 1009994
12:00+7wnw8116798 0.6 10101687
15:00+8w7972100 1.7 10111439
18:00+8wnw610739 1.3 10121316
21:00+4wnw36805 1.7 1014100
9 may, sun
sun900:00+2w33890 0.0 101737
03:000w33941 0.0 101946
06:00+1sw3598100 0.0 102191
09:00+6sw467911 0.0 1021459
12:00+10sw565328 0.0 10221447
15:00+12sw564899 0.0 10211710
18:00+13ssw4755100 0.0 10201917
21:00+10sse41162100 0.0 1021314
10 may, mon
mon1000:00+9s5147049 0.0 1021353
03:00+7s5137960 0.0 1021283
06:00+7sse51283100 0.0 1022255
09:00+11s6117217 0.0 1023391
12:00+17s79555 0.0 1022967
15:00+19s79504 0.0 10221321
18:00+18sse6106037 0.0 10211153
21:00+13se51370100 0.0 1021391